Regional Weather Roundup
Issued by NWS

Home | Current Version | Previous Version | Graphics & Text | Print | Product List | Glossary On
Versions: 1 2 3 4 5 6 7 8 9 10 11 12 13 14 15 16 17 18 19 20 21 22 23 24 25 26 27 28 29 30 31 32 33 34 35 36 37 38 39 40 41 42 43 44 45 46 47 48 49 50
000
ASUS43 KFSD 211602
RWRSD

WEATHER ROUNDUP FOR SOUTH DAKOTA
NATIONAL WEATHER SERVICE SIOUX FALLS SD
1100 AM CDT THU SEP 21 2017

NOTE: "FAIR" INDICATES FEW OR NO CLOUDS BELOW 12,000 FEET WITH NO
SIGNIFICANT WEATHER AND/OR OBSTRUCTIONS TO VISIBILITY.


SDZ001>005-009-010-012>017-211700-
NORTHWEST AND NORTH CENTRAL SOUTH DAKOTA

CITY           SKY/WX    TMP DP  RH WIND       PRES   REMARKS
BUFFALO          N/A     64  36  35 N23       29.62R
FAITH            N/A     70  48  45 S24G31    29.64R
MOBRIDGE       SUNNY     72  53  51 S26G39    29.66F
$$

SDZ012>016-024>037-041>051-057-063-072>074-211700-
SOUTHWEST AND SOUTH CENTRAL SOUTH DAKOTA

CITY           SKY/WX    TMP DP  RH WIND       PRES   REMARKS
RAPID CTY ARPT SUNNY     66  41  39 S10       29.68R
PIERRE         SUNNY     72  53  51 SE22G33   29.69F
CUSTER         SUNNY     67  34  29 VRB6      29.76R
ELLSWORTH AFB  SUNNY     66  40  38 NE7       29.67R
PHILIP         SUNNY     75  54  47 S21       29.65F
PINE RIDGE     SUNNY     70  49  47 VRB7G18   29.70R
SPEARFISH      FAIR      61  37  41 W15       29.73R
WINNER         FAIR      72  59  63 SE13      29.73F
$$

SDZ004>011-016>023-039-040-211700-
NORTHEAST SOUTH DAKOTA

CITY           SKY/WX    TMP DP  RH WIND       PRES   REMARKS
ABERDEEN       SUNNY     73  46  38 S15G29    29.78F
WATERTOWN      SUNNY     69  44  40 SE15G25   29.82F
BROOKINGS        N/A     70  52  52 SE20G28   29.84
SISSETON         N/A     68  49  50 S17G23    29.81F
$$

SDZ017-020-022-023-036>040-048>070-211700-
SOUTHEAST SOUTH DAKOTA

CITY           SKY/WX    TMP DP  RH WIND       PRES   REMARKS
SIOUX FALLS    MOSUNNY   71  63  75 SE17      29.83F
HURON          MOSUNNY   69  52  54 S13G24    29.78F
CHAMBERLAIN    PTSUNNY   71  59  64 SE18G25   29.75F
MITCHELL       PTSUNNY   70  56  61 SE13G26   29.79F
YANKTON        PTSUNNY   68  61  78 E12       29.80F
$$

ABBREVIATIONS USED IN REMARKS
   TC - TEMPERATURE IN CELSIUS
  WCI - WIND CHILL INDEX
   HX - HEAT INDEX
  VSB - VISIBILITY





USA.gov is the U.S. government's official web portal to all federal, state and local government web resources and services.